Theta_e
320 319 318 318 319 320 316 315 312 308 311 321 323 327 328 328 332 333 328 326 325 322 321 321 322 323 324 325 325 326 327 327 328 329 329 328 327 326
321 320 318 319 322 321 319 316 314 314 314 321 323 325 325 326 328 327 327 324 322 320 320 319 319 319 320 322 322 323 325 325 325 326 326 326 325 323
319 320 319 319 322 320 319 317 315 318 318 320 323 323 320 318 320 323 324 322 320 320 319 318 317 318 319 319 319 321 322 321 321 321 321 321 321 321
320 319 321 322 320 320 318 315 316 317 320 317 320 319 317 318 317 318 321 322 320 319 317 317 316 316 315 315 314 314 314 315 315 316 317 318 319 318
322 321 321 320 319 319 316 317 318 319 320 319 317 319 318 318 316 317 315 315 318 319 316 316 315 314 313 312 311 310 308 308 309 311 313 314 314 313
324 323 323 322 321 320 319 320 320 319 319 319 317 316 317 318 317 315 315 315 316 317 315 314 313 313 312 311 311 310 307 306 305 306 306 306 306 307
324 325 324 323 320 321 322 322 320 318 319 317 316 316 316 315 314 316 313 313 312 313 311 310 309 309 309 311 312 311 306 305 304 303 303 301 301 302
321 322 322 319 315 313 315 316 319 318 318 317 316 315 315 316 316 314 313 312 307 313 308 304 306 303 303 303 306 305 303 303 303 302 301 300 300 299
320 323 323 320 318 319 311 312 312 311 315 319 317 316 315 316 316 315 314 313 312 310 308 302 301 298 298 301 302 301 301 300 300 300 300 299 298 297
322 322 320 320 318 318 320 319 320 320 319 321 319 319 319 319 319 317 313 311 311 309 308 302 297 295 295 295 300 299 298 298 298 298 298 298 296 296
323 322 321 319 303 305 319 316 315 314 307 306 306 304 303 304 312 315 312 310 307 307 307 300 297 294 294 293 294 299 297 297 297 297 297 297 296 295
320 318 308 313 301 305 319 317 314 314 314 313 312 308 311 309 308 316 314 310 307 305 308 300 297 295 295 294 292 294 293 296 296 296 297 297 296 291
318 317 313 300 300 301 308 319 314 316 312 317 316 315 316 316 317 315 314 312 308 307 308 302 298 297 298 295 292 291 291 290 291 292 296 296 296 293
318 317 308 298 299 299 307 300 302 311 318 317 316 314 314 314 315 314 312 312 311 312 309 305 300 300 299 295 296 291 289 289 288 288 288 292 295 295
318 309 298 296 297 300 299 300 307 318 317 316 315 315 315 313 311 312 312 313 312 312 311 308 305 302 302 301 299 294 291 290 289 287 287 288 288 289
304 307 305 305 305 306 308 313 317 317 316 316 315 312 311 311 310 311 310 309 310 309 306 308 307 304 302 302 301 297 294 297 290 289 288 288 289 289
311 315 316 316 314 316 318 318 317 317 316 313 315 313 312 311 311 310 309 307 307 306 304 300 295 299 298 302 301 301 299 297 296 291 289 289 290 291
313 316 316 316 316 316 317 318 317 313 315 316 315 317 317 314 312 309 309 308 306 305 304 299 295 295 294 294 298 300 298 298 296 294 292 290 290 291
310 315 317 317 317 318 318 318 318 316 315 317 316 316 315 314 311 311 310 309 308 306 305 301 296 298 297 299 296 293 296 294 292 291 291 290 290 293
310 313 316 317 317 318 318 318 318 314 317 316 315 315 314 314 312 313 314 313 312 309 304 301 299 297 300 304 300 290 289 292 291 290 288 288 288 289
310 311 315 317 317 318 318 318 317 317 317 317 316 315 315 316 315 315 315 298 302 308 306 306 307 295 297 293 293 290 286 290 293 291 291 289 288 288
312 312 313 315 316 317 317 317 316 312 313 316 316 317 316 316 315 314 313 311 308 311 311 307 296 294 292 297 300 292 285 285 290 294 294 294 291 289
315 315 314 315 314 315 314 315 315 316 314 314 314 314 314 313 315 315 313 312 312 308 307 298 293 292 293 294 292 283 284 285 289 289 289 292 293 293
Wind_Speed
5 5 4 4 4 4 4 3 6 3 2 2 0 3 3 3 6 8 11 21 21 20 23 22 23 19 14 13 11 11 13 13 12 10 10 8 9 10
4 5 4 3 4 3 3 3 2 4 4 1 3 2 6 6 10 9 13 23 26 26 26 25 23 21 17 9 7 9 11 11 10 10 11 11 10 11
3 5 4 2 3 3 3 3 3 5 8 3 3 5 7 10 9 9 13 13 16 25 27 23 20 17 10 10 9 10 10 11 10 11 11 11 12 13
5 4 3 2 3 3 4 4 5 4 10 10 3 3 7 10 10 10 8 11 16 23 21 19 15 14 9 9 11 10 10 10 10 11 11 12 13 13
4 3 3 4 3 3 4 6 6 5 7 8 6 4 5 8 11 10 10 12 12 20 16 12 10 10 10 11 11 10 10 10 10 10 11 12 12 12
4 4 4 4 4 6 5 9 9 9 9 8 8 7 6 7 9 11 9 9 10 7 11 10 11 12 11 11 11 11 10 9 9 10 11 11 11 11
4 5 5 5 6 7 7 9 11 8 9 9 7 7 8 9 10 6 9 9 6 5 7 4 6 5 4 7 8 10 9 9 10 10 11 11 10 10
4 5 4 4 5 8 9 10 12 14 11 9 7 9 9 8 9 10 11 9 5 3 4 5 3 3 3 3 5 8 10 10 10 10 9 9 10 10
4 4 3 2 5 5 8 11 11 9 9 12 13 11 12 13 12 11 9 6 5 3 7 3 2 3 3 4 7 8 9 9 8 9 9 10 9 8
4 4 5 4 4 6 8 9 10 9 9 8 11 13 12 12 11 11 9 8 9 4 3 3 0 2 2 2 4 6 7 7 9 10 11 10 9 9
4 5 5 6 7 10 11 12 11 9 12 15 14 15 15 14 13 11 8 10 5 2 1 4 2 2 1 2 2 5 6 6 7 9 9 10 9 7
5 5 9 7 8 11 11 13 13 11 14 14 12 13 13 12 11 6 9 10 6 2 4 4 3 4 1 1 3 3 3 7 8 8 9 9 9 3
4 4 3 10 10 12 10 9 11 12 14 12 11 9 9 8 4 5 5 7 4 2 5 5 4 3 1 2 2 4 4 3 4 4 9 10 10 9
4 4 4 9 12 13 11 15 15 13 10 9 9 8 7 5 3 4 6 5 3 1 8 6 4 5 4 2 2 1 3 3 4 4 4 5 10 10
4 7 11 10 12 12 17 14 11 8 10 9 8 7 5 5 5 4 4 3 3 3 5 5 4 5 4 3 3 3 3 4 6 5 4 5 5 4
8 6 6 8 9 9 9 7 6 6 8 10 7 4 4 4 3 3 3 3 2 1 4 1 5 5 3 3 4 4 5 4 4 6 5 3 4 5
7 4 5 4 6 6 5 5 5 6 7 4 7 5 4 4 3 2 2 2 2 3 2 1 5 4 2 4 4 4 4 4 4 4 4 5 5 6
4 4 4 5 6 5 5 6 4 4 5 6 5 7 7 6 4 2 2 4 4 4 2 2 3 1 2 3 5 4 3 3 3 5 3 4 3 4
3 4 5 6 7 6 5 6 6 5 5 5 6 6 4 4 4 4 4 4 4 3 4 4 3 3 3 5 2 5 4 4 3 3 3 2 3 3
3 6 6 5 6 7 6 6 7 4 6 5 5 5 4 4 4 5 6 7 6 3 3 4 5 5 7 7 4 3 3 4 4 4 4 2 2 4
4 4 6 7 7 8 9 8 6 7 7 6 6 6 7 7 8 7 6 6 5 4 6 8 10 8 3 3 2 3 3 0 6 6 5 4 3 3
4 5 5 6 7 8 8 7 7 6 6 7 7 7 6 6 7 6 6 7 8 8 9 3 3 5 4 7 10 4 2 1 2 6 3 7 7 6
6 5 5 6 6 5 5 5 5 5 5 5 5 5 6 7 8 8 7 8 8 6 6 3 3 2 3 6 5 3 5 4 4 3 1 3 6 9
Wind_Direction
215 214 204 212 197 194 189 160 143 148 117 50 83 89 71 24 106 119 135 139 132 125 120 119 114 113 118 124 147 140 131 143 157 161 156 154 132 116
207 201 201 203 184 168 181 164 140 132 124 80 48 76 75 61 83 101 129 119 121 122 115 110 111 108 113 130 135 142 136 146 146 135 121 116 118 120
155 172 199 204 183 173 120 113 103 105 120 82 63 86 65 80 80 96 115 123 116 115 113 118 121 126 137 127 133 134 130 123 125 124 120 119 119 124
171 153 98 134 182 155 123 123 118 113 130 120 100 78 87 90 92 92 105 119 115 112 116 123 120 124 138 145 127 117 120 125 118 117 123 132 135 138
189 185 149 130 117 114 111 116 114 101 115 116 115 93 93 106 97 91 99 106 108 111 122 123 129 135 134 117 117 121 113 111 123 134 138 130 123 129
177 151 122 115 120 122 121 124 121 116 118 113 115 114 111 109 111 117 114 114 127 108 86 93 95 90 103 111 117 121 128 135 133 122 111 117 123 130
93 109 117 120 119 134 144 137 133 125 129 128 127 131 132 134 131 114 111 110 75 94 89 73 85 74 64 84 117 129 127 116 108 123 139 136 138 131
101 99 118 120 105 133 138 138 148 142 146 138 136 141 137 125 126 129 124 129 104 41 103 64 48 75 61 55 96 111 109 125 144 148 132 133 143 144
124 126 113 102 130 129 127 122 114 98 129 151 142 146 134 139 134 134 131 124 110 119 100 88 34 67 23 61 102 128 147 151 140 144 153 158 156 147
121 116 112 108 114 125 131 130 134 130 128 133 133 135 134 136 130 127 115 96 90 78 86 113 70 82 53 51 151 166 165 157 170 175 175 172 166 175
95 102 105 100 116 120 116 112 107 94 80 90 102 106 111 112 120 122 119 124 115 142 74 114 147 100 158 227 219 197 190 186 187 193 186 183 188 180
77 79 105 113 105 103 114 118 115 122 115 110 106 97 106 107 105 118 146 147 134 115 202 103 141 145 229 221 197 180 189 205 203 206 203 199 194 179
95 100 96 109 100 94 100 112 116 120 119 119 116 113 120 131 111 126 142 155 135 139 176 120 149 149 155 168 236 194 183 201 194 215 213 210 203 190
113 103 109 120 110 98 92 114 112 117 117 118 121 124 135 146 146 159 157 156 129 191 165 124 146 167 159 142 222 175 225 220 189 207 202 205 215 215
108 118 126 118 97 100 123 124 115 124 128 130 142 148 159 147 126 105 102 149 71 85 157 190 137 155 165 170 165 197 172 225 200 196 198 190 186 183
100 101 108 98 96 117 126 123 125 136 148 147 147 127 111 124 124 148 142 136 120 90 45 83 175 147 183 202 167 193 205 221 178 205 207 188 197 203
105 110 114 112 126 137 131 118 124 135 135 119 131 129 127 147 176 170 122 120 160 177 206 41 40 90 97 170 202 213 207 223 201 167 161 213 218 208
97 136 121 120 135 141 137 133 128 130 139 132 138 168 179 183 179 152 145 183 199 198 186 147 149 100 20 286 222 210 224 229 196 172 166 182 233 202
121 156 152 152 152 160 156 159 171 178 152 157 163 175 164 163 164 189 203 208 228 212 208 170 167 152 185 255 235 236 209 194 163 165 177 166 203 186
138 162 169 169 165 169 174 185 187 160 178 175 170 177 175 177 187 209 207 219 223 204 207 189 193 184 194 227 216 207 211 177 172 170 146 97 63 80
167 163 168 181 186 193 198 199 189 193 192 186 190 188 192 195 215 218 221 221 210 194 225 228 227 197 131 93 310 252 203 101 199 164 157 130 152 153
180 180 178 181 189 192 193 189 187 183 195 200 208 208 208 210 224 218 212 215 215 225 237 246 118 129 163 193 236 204 183 244 7 148 119 136 166 187
196 192 186 186 187 191 185 186 198 210 210 210 203 201 192 208 217 218 218 221 233 227 224 191 164 189 224 206 207 165 179 185 176 151 134 66 101 102